Regional Weather Roundup
Issued by NWS

Home | Current Version | Previous Version | Graphics & Text | Print | Product List | Glossary On
Versions: 1 2 3 4 5 6 7 8 9 10 11 12 13 14 15 16 17 18 19 20 21 22 23 24 25 26 27 28 29 30 31 32 33 34 35 36 37 38 39 40 41 42 43 44 45 46 47 48 49 50
000
ASUS45 KABQ 290110
RWRNM
WEATHER ROUNDUP FOR NEW MEXICO
NATIONAL WEATHER SERVICE ALBUQUERQUE NM
600 PM MST FRI NOV 28 2014

NOTE: "FAIR" MEANS FEW OR NO CLOUDS BELOW 12,000 FEET AGL WITH NO
       SIGNIFICANT WEATHER OR OBSTRUCTIONS TO VISION.

      THIS PRODUCT IS RELEASED AS TWO VERSIONS.  ONE VERSION NEAR
      THE TOP OF THE HOUR CONTAINING PRELIMINARY DATA FROM ALBUQUERQUE
      AND OTHER STATIONS.  A FINAL VERSION WITH ADDITIONAL DATA IS
      ISSUED ABOUT 10 MINUTES AFTER THE HOUR.

NMZ501-503-504-510>518-290200-
NORTHWEST PLATEAU/NORTHCENTRAL MOUNTAINS

CITY           SKY/WX    TMP DP  RH WIND       PRES   REMARKS
FARMINGTON     CLEAR     45  14  28 NE5       30.06S
LOS ALAMOS     CLEAR     48  18  31 W5        30.16S
SANTA FE       CLEAR     47  15  27 NW5       30.11S
TAOS           MOCLDY    46  19  34 W5        30.14F
ANGEL FIRE     FAIR      42  11  28 S3        30.16R

$$
NMZ402-403-502-505>509-290200-
WESTCENTRAL MOUNTAINS/SOUTHWEST MOUNTAINS

CITY           SKY/WX    TMP DP  RH WIND       PRES   REMARKS
GALLUP         CLEAR     51   4  14 W5        30.13S
GRANTS         PTCLDY    45   0  15 SW8       30.14S
SILVER CITY    CLEAR     55  16  21 CALM      30.15S

$$
NMZ407-409-411-412-290200-
SOUTHERN DESERTS

CITY           SKY/WX    TMP DP  RH WIND       PRES   REMARKS
LORDSBURG      FAIR      54  21  28 S6        30.08S
DEMING         CLEAR     56  19  23 SW6       30.09S
LAS CRUCES     CLEAR     56  18  22 SE7       30.11S
HOLLOMAN AFB   CLEAR     57  20  23 SE5       30.08S
ALAMOGORDO     CLEAR     48  16  27 SE6       30.10R
T OR C         CLEAR     57  19  22 SE6       30.09R

$$
NMZ519>523-290200-
CENTRAL VALLEYS/CENTRAL HIGHLANDS

CITY           SKY/WX    TMP DP  RH WIND       PRES   REMARKS
ALBUQUERQUE    CLEAR     53  19  26 SE3       30.10S
DOUBLE EAGLE   CLEAR     48  16  27 CALM      30.12S
MORIARTY ARPT  FAIR      46  13  25 SW3       30.13R
CLINES CORNERS PTCLDY    45  11  25 W13       30.12S
BELEN          FAIR      50  19  29 S5        30.09S
SOCORRO        FAIR      54  20  26 NE7       30.08S

$$
NMZ524>526-539-540-290200-
SOUTHCENTRAL MOUNTAINS

CITY           SKY/WX    TMP DP  RH WIND       PRES   REMARKS
RUIDOSO        CLEAR     46  18  31 W8        30.18S

$$
NMZ527>531-290200-
NORTHEAST HIGHLANDS/NORTHEAST PLAINS

CITY           SKY/WX    TMP DP  RH WIND       PRES   REMARKS
LAS VEGAS      PTCLDY    51  10  19 SW10      30.07R
RATON          CLOUDY    51   7  16 SW12      29.98S
CLAYTON        CLOUDY    63   3   9 W12       29.90F

$$
NMZ532>537-290200-
EASTCENTRAL PLAINS

CITY           SKY/WX    TMP DP  RH WIND       PRES   REMARKS
TUCUMCARI      PTCLDY    63  21  20 SW15      29.91S
CANNON AFB     PTCLDY    55  17  22 SW12      29.99S
CLOVIS AIRPORT PTCLDY    50  12  22 SW12      29.98S

$$
NMZ028-029-538-290200-
SOUTHEAST PLAINS

CITY           SKY/WX    TMP DP  RH WIND       PRES   REMARKS
ROSWELL        CLEAR     58  29  33 E7        29.99S
CARLSBAD       CLEAR     51  32  48 W8        29.98F
HOBBS          CLEAR     54  19  26 S9        30.03S


$$



USA.gov is the U.S. government's official web portal to all federal, state and local government web resources and services.